Location: Arthez
(43.0833°N, 0.2500°W)
Time: 01:09:33
(UTC+00:00)

NOSS 3-1 (A) - Pass Details

Date: 02 June 2022
Orbit: 711 x 1501 km, 63.4° (Epoch: 21 May)

Event Time Altitude Azimuth Distance (km) Brightness Sun altitude
Rises 21:20:14 0° 325° (NW) 3,848 8.5 -15.1°
Reaches altitude 10° 21:22:53 10° 333° (NNW) 3,005 7.4 -15.4°
Maximum altitude 21:29:49 43° 43° (NE) 1,735 4.9 -16.2°
Enters shadow 21:36:44 14° 109° (ESE) 3,156 5.7 -16.9°
